Location: Harold
(37.5371°N, 82.6347°W)
Time: 10:13:39
(UTC+00:00)

ISS - Visible Passes

Search period start: 11 June 2026 00:00
Search period end: 21 June 2026 00:00
Orbit: 415 x 423 km, 51.6° (Epoch: 10 June)

Date Brightness Start Highest point End Pass type
(mag) Time Alt. Az. Time Alt. Az. Time Alt. Az.
17 Jun -2.0 09:20:01 10° S 09:22:51 25° SE 09:25:43 10° ENE visible
18 Jun -1.3 08:33:49 11° SSE 08:35:20 14° SE 08:37:16 10° E visible
19 Jun -3.8 09:21:02 12° SW 09:24:06 87° SSE 09:27:30 10° NE visible
20 Jun -3.1 08:35:14 30° S 08:36:28 46° SE 08:39:44 10° ENE visible
